Погода в Санто-Доминго

Эквадор     0°14′03″N   79°13′24″W
темп.,
°C
ветер,
м/с
пор.,
м/с
влажн.,
%
обл.,
%
осадки,
мм/ч
давл.,
гПа
погр.,
м
22 апреля, чт
чт2201:00+22зюз119991 1.4 101157
04:00+22з009999 0.5 101081
07:00+22ссз009896 0.8 101272
10:00+25зсз228959 1.4 1013492
13:00+27зсз117735 5.1 1009760
16:00+26з118263 6.1 1007467
19:00+22с1195100 15.6 101012
22:00+21ссз1199100 8.1 101327
23 апреля, пт
пт2301:00+22з11100100 15.1 1012136
04:00+21зсз25100100 51.9 1007363
07:00+20ю2598100 122.6 1014238
10:00+21в1194100 6.0 101580
13:00+27з116959 6.1 1011646
16:00+27з226747 0.1 1009948
19:00+22ююз119061 0.3 101111
22:00+22ю119274 0.0 101312
24 апреля, сб
сб2401:00+21з019585 0.1 101326
04:00+22ююз119681 0.1 101263
07:00+22ю119352 0.3 101350
10:00+27з216942 0.1 1014959
13:00+29з225890 0.2 10101607
16:00+26зюз127886 1.1 1008364
19:00+23с009293 3.3 101011
22:00+22всв119598 0.6 101311
25 апреля, вс
вс2501:00+22св1197100 1.7 101224
04:00+22с0098100 0.2 101130
07:00+22сз0199100 0.4 101291
10:00+22з129694 1.2 1013237
13:00+25юз228449 1.5 1010535
16:00+27юз227497 0.9 1008716
19:00+22ююз129694 7.7 101137
22:00+21ссз1199100 5.4 101322
26 апреля, пн
пн2601:00+21св009981 7.1 101245
04:00+21юз119995 0.8 101166
07:00+21юз129859 0.9 1012133
10:00+25юз2386100 0.2 1012581
13:00+28зюз337094 0.7 10091062
16:00+26юз348050 2.5 1008732
19:00+22юз249691 6.8 101091
22:00+22юз1198100 3.5 101233